This demonstration page uses our WeatherBlox Daily Observations layout. Learn more.

36.17497, -115.13722

Hourly Observations for April 13, 2015

Temp ( °F °C ) Dew Point ( °F °C ) Humidity (%) Winds ( mph kmh ) Pressure ( in mb ) Visibility ( mi km ) Precip ( " mm )
12:53 am 00:53 Clear 64 17.8 17 -8.3 16 16 N 6 9 29.96 1015 10 16.0934 0 0
1:53 am 01:53 Clear 63 17.2 15 -9.4 15 15 WNW 6 9 29.97 1015 10 16.0934 0 0
2:53 am 02:53 Clear 61 16.1 22 -5.6 22 22 Calm 29.98 1015 10 16.0934 0 0
3:53 am 03:53 Clear 59 15 22 -5.6 24 24 NW 5 7 29.99 1016 10 16.0934 0 0
4:53 am 04:53 Clear 60 15.6 20 -6.7 21 21 NW 5 7 29.99 1016 10 16.0934 0 0
5:53 am 05:53 Clear 57 13.9 21 -6.1 25 25 WNW 3 6 30.01 1016 10 16.0934 0 0
6:53 am 06:53 Sunny 58 14.4 22 -5.6 25 25 NNW 3 6 30.04 1017 10 16.0934 0 0
7:53 am 07:53 Sunny 64 17.8 22 -5.6 20 20 NW 3 6 30.06 1018 10 16.0934 0 0
8:53 am 08:53 Sunny 70 21.1 16 -8.9 12 12 SSE 7 11 30.06 1018 10 16.0934 0 0
9:53 am 09:53 Sunny 72 22.2 15 -9.4 11 11 SSE 3 6 30.07 1018 10 16.0934 0 0
10:53 am 10:53 Sunny 76 24.4 12 -11.1 9 9 SE 6 9 30.08 1019 10 16.0934 0 0
11:53 am 11:53 Sunny 79 26.1 12 -11.1 8 8 S 8 13 30.05 1018 10 16.0934 0 0
12:53 pm 12:53 Sunny 82 27.8 12 -11.1 7 7 SE 9 15 30.02 1017 10 16.0934 0 0
1:53 pm 13:53 Sunny 84 28.9 10 -12.2 6 6 ESE 9 15 29.98 1015 10 16.0934 0 0
2:53 pm 14:53 Sunny 86 30 10 -12.2 6 6 undefined N/A 29.94 1014 10 16.0934 0 0
3:53 pm 15:53 Sunny 88 31.1 9 -12.8 5 5 SE 15 24 29.91 1013 10 16.0934 0 0
4:53 pm 16:53 Sunny 87 30.6 8 -13.3 5 5 S 6 9 29.89 1012 10 16.0934 0 0
5:53 pm 17:53 Sunny 87 30.6 9 -12.8 5 5 SE 12 19 29.88 1012 10 16.0934 0 0
6:53 pm 18:53 Sunny 85 29.4 4 -15.6 4 4 W 15 24 29.88 1012 10 16.0934 0 0
7:53 pm 19:53 Clear 82 27.8 7 -13.9 5 5 WSW 7 11 29.88 1012 10 16.0934 0 0
8:53 pm 20:53 Clear 79 26.1 11 -11.7 7 7 SW 8 13 29.89 1012 10 16.0934 0 0
9:53 pm 21:53 Clear 77 25 14 -10 9 9 SSW 6 9 29.9 1012 10 16.0934 0 0
10:53 pm 22:53 Clear 77 25 21 -6.1 12 12 WSW 7 11 29.91 1013 10 16.0934 0 0
11:53 pm 23:53 Clear 76 24.4 22 -5.6 13 13 WSW 6 9 29.91 1013 10 16.0934 0 0

Powered by AerisWeather